Home > Weather > Minsk > Past weeks

Flag for Belarus Past Weather in Minsk, Belarus — Yesterday and Last 2 Weeks

Now
66 °F

Clear.


Feels Like: 66 °F
Forecast: 62 / 86 °F
Wind: No wind

Location: Minsk

Current Time: Jul 28, 2016 at 12:07:41 AM

Latest Report: Jul 27, 2016 at 11:30 PM


Visibility: 4 mi

Pressure: 30.04 "Hg

Humidity: 94%

Dew Point: 64 °F

Location of MinskLocation

Past Weather in Minsk — Graph

°F

Minsk Temperature Yesterday

Maximum temperature yesterday: 84 °F (at 2:30 PM)
Minimum temperature yesterday: 57 °F (at 5:30 AM)
Average temperature yesterday: 71 °F

High & Low Weather Summary for the Past Weeks

 TemperatureHumidityPressure
High84 °F (Jul 25, 4:30 PM)100% (Jul 12, 10:30 PM)30.15 "Hg (Jul 12, 10:30 PM)
Low46 °F (Jul 22, 4:30 AM)39% (Jul 17, 5:30 PM)29.59 "Hg (Jul 21, 8:30 AM)
Average66 °F80%29.93 "Hg
* Reported Jul 12 10:00 PM — Jul 27 10:30 PM, Minsk, Weather by CustomWeather, © 2016

Note: Actual official high and low records may vary slightly from our data, if they occured in-between our weather recording intervals... More about our weather records

Advertising

Minsk Weather History for the Previous 24 Hours

Scroll right to see more
 ConditionsComfort  
Time TempWeatherWind HumidityBarometerVisibility
10:30 PM
Wed, Jul 27
68 °FClear.No wind94%30.04 "Hg4 mi
10:00 PM68 °FClear.No wind94%30.04 "Hg4 mi
9:30 PM70 °FClear.No wind88%30.04 "Hg5 mi
9:00 PM72 °FClear.No wind83%30.01 "Hg5 mi
8:30 PM75 °FSunny.No wind78%30.01 "Hg10 mi
8:00 PM77 °FSunny.No wind69%30.01 "Hg10 mi
7:30 PM77 °FSunny.1 mph69%30.04 "Hg10 mi
7:00 PM77 °FBroken clouds.3 mph65%30.01 "HgN/A
6:30 PM77 °FBroken clouds.8 mph61%30.04 "HgN/A
6:00 PM77 °FSprinkles. Partly sunny.6 mph57%30.04 "Hg2 mi
5:57 PM81 °FSprinkles. Partly sunny.8 mph54%30.04 "Hg2 mi
5:30 PM81 °FBroken clouds.6 mph54%30.04 "HgN/A
5:00 PM81 °FBroken clouds.3 mph54%30.04 "HgN/A
4:30 PM81 °FBroken clouds.3 mph48%30.04 "HgN/A
4:00 PM84 °FBroken clouds.6 mph40%30.04 "HgN/A
3:30 PM82 °FBroken clouds.10 mph48%30.04 "HgN/A
3:00 PM82 °FScattered clouds.10 mph51%30.04 "HgN/A
2:47 PM84 °FScattered clouds.6 mph48%30.04 "HgN/A
2:30 PM84 °FThundershowers. Partly sunny.3 mph48%30.04 "HgN/A
2:00 PM82 °FScattered clouds.3 mph45%30.04 "HgN/A
1:30 PM82 °FScattered clouds.3 mph45%30.07 "HgN/A
1:00 PM81 °FScattered clouds.3 mph51%30.07 "HgN/A
12:30 PM81 °FBroken clouds.3 mph51%30.07 "HgN/A
12:00 PM79 °FBroken clouds.1 mph61%30.07 "HgN/A
11:30 AM77 °FSunny.No wind69%30.09 "Hg10 mi
11:00 AM77 °FSunny.No wind65%30.09 "Hg10 mi
10:30 AM75 °FSunny.No wind69%30.07 "Hg10 mi
10:00 AM75 °FSunny.No wind74%30.07 "Hg10 mi
9:30 AM75 °FSunny.No wind74%30.07 "Hg10 mi
9:00 AM73 °FPassing clouds.3 mph78%30.07 "HgN/A
8:30 AM72 °FClear.No wind83%30.07 "Hg4 mi
8:00 AM70 °FClear.1 mph88%30.07 "Hg5 mi
7:30 AM68 °FFog.No wind88%30.07 "Hg3 mi
7:00 AM64 °FFog.No wind94%30.07 "Hg3 mi
6:30 AM61 °FFog.No wind94%30.07 "Hg2 mi
6:00 AM59 °FFog.No wind94%30.07 "Hg1 mi
5:30 AM57 °FFog.No wind100%30.07 "Hg1 mi
5:00 AM59 °FFog.No wind94%30.07 "Hg0 mi
4:55 AM59 °FFog.No wind94%30.07 "Hg0 mi
4:30 AM59 °FFog.No wind94%30.07 "Hg0 mi
4:00 AM59 °FFog.No wind100%30.07 "Hg1 mi
3:48 AM59 °FFog.No wind100%30.07 "Hg2 mi
3:30 AM59 °FFog.No wind100%30.07 "Hg2 mi
3:00 AM61 °FFog.1 mph94%30.07 "Hg1 mi
2:30 AM61 °FFog.No wind100%30.07 "Hg2 mi
2:00 AM61 °FFog.No wind100%30.07 "Hg2 mi
1:30 AM61 °FFog.No wind100%30.07 "Hg2 mi
1:00 AM63 °FFog.No wind100%30.07 "Hg3 mi
12:30 AM63 °FFog.3 mph94%30.07 "Hg3 mi
12:00 AM63 °FFog.No wind100%30.07 "Hg3 mi
Weather by CustomWeather, © 2016

See weather overviewHow to use our weather pages